contact:dominique.lefevre@mio.osupytheas.fr, maurice.libes@osupytheas.fr, didier.mallarino@osupytheas.fr
Project:EMSO http://www.emso-fr.org/EMSO-France
Depth: 2436.0 m
Title:EMSO Ligure Ouest : Data MII capteur OXYGEN
DateTime,Latitude,Longitude,Optode-Type,Optode_Serial,Oxygen,Saturation_Oxygen,Temperature
DateTime,Latitude,Longitude,Optode-Type,Optode_Serial,µmol.l-1,%,degC
2017-12-03T00:00:49,42.805,6.029,4330,1995,198.471,60.692,13.286
2017-12-03T00:03:49,42.805,6.029,4330,1995,198.432,60.680,13.286
2017-12-03T00:06:49,42.805,6.029,4330,1995,198.448,60.685,13.286
2017-12-03T00:09:49,42.805,6.029,4330,1995,198.447,60.684,13.286
2017-12-03T00:12:49,42.805,6.029,4330,1995,198.493,60.698,13.285
2017-12-03T00:15:49,42.805,6.029,4330,1995,198.498,60.700,13.285
2017-12-03T00:18:49,42.805,6.029,4330,1995,198.511,60.704,13.285
2017-12-03T00:21:49,42.805,6.029,4330,1995,198.449,60.685,13.285
2017-12-03T00:24:49,42.805,6.029,4330,1995,198.463,60.689,13.286
2017-12-03T00:27:49,42.805,6.029,4330,1995,198.440,60.682,13.285
2017-12-03T00:30:49,42.805,6.029,4330,1995,198.429,60.679,13.285
2017-12-03T00:33:49,42.805,6.029,4330,1995,198.448,60.685,13.286
2017-12-03T00:36:49,42.805,6.029,4330,1995,198.428,60.679,13.286
2017-12-03T00:39:49,42.805,6.029,4330,1995,198.456,60.687,13.285
2017-12-03T00:42:49,42.805,6.029,4330,1995,198.356,60.657,13.286
2017-12-03T00:45:49,42.805,6.029,4330,1995,198.410,60.673,13.285
2017-12-03T00:48:49,42.805,6.029,4330,1995,198.372,60.661,13.285
2017-12-03T00:51:49,42.805,6.029,4330,1995,198.405,60.671,13.285
2017-12-03T00:54:49,42.805,6.029,4330,1995,198.379,60.664,13.286
2017-12-03T00:57:49,42.805,6.029,4330,1995,198.392,60.667,13.285
2017-12-03T01:00:49,42.805,6.029,4330,1995,198.357,60.657,13.286
2017-12-03T01:03:49,42.805,6.029,4330,1995,198.369,60.660,13.285
2017-12-03T01:06:49,42.805,6.029,4330,1995,198.358,60.657,13.285
2017-12-03T01:09:49,42.805,6.029,4330,1995,198.362,60.658,13.285
2017-12-03T01:12:49,42.805,6.029,4330,1995,198.290,60.636,13.285
2017-12-03T01:15:49,42.805,6.029,4330,1995,198.309,60.642,13.285
2017-12-03T01:18:49,42.805,6.029,4330,1995,198.319,60.645,13.285
2017-12-03T01:21:49,42.805,6.029,4330,1995,198.323,60.646,13.285
2017-12-03T01:24:49,42.805,6.029,4330,1995,198.329,60.648,13.285
2017-12-03T01:27:49,42.805,6.029,4330,1995,198.333,60.649,13.285
2017-12-03T01:30:49,42.805,6.029,4330,1995,198.285,60.635,13.285
2017-12-03T01:33:49,42.805,6.029,4330,1995,198.292,60.637,13.286
2017-12-03T01:36:49,42.805,6.029,4330,1995,198.287,60.635,13.285
2017-12-03T01:39:49,42.805,6.029,4330,1995,198.243,60.622,13.285
2017-12-03T01:42:49,42.805,6.029,4330,1995,198.253,60.625,13.285
2017-12-03T01:45:49,42.805,6.029,4330,1995,198.324,60.647,13.286
2017-12-03T01:48:49,42.805,6.029,4330,1995,198.236,60.620,13.285
2017-12-03T01:51:49,42.805,6.029,4330,1995,198.271,60.631,13.285
2017-12-03T01:54:49,42.805,6.029,4330,1995,198.257,60.626,13.285
2017-12-03T01:57:49,42.805,6.029,4330,1995,198.276,60.632,13.286
2017-12-03T02:00:49,42.805,6.029,4330,1995,198.296,60.638,13.285
2017-12-03T02:03:49,42.805,6.029,4330,1995,198.338,60.651,13.286
2017-12-03T02:06:49,42.805,6.029,4330,1995,198.365,60.660,13.286
2017-12-03T02:09:49,42.805,6.029,4330,1995,198.319,60.645,13.285
2017-12-03T02:12:49,42.805,6.029,4330,1995,198.423,60.677,13.285
2017-12-03T02:15:49,42.805,6.029,4330,1995,198.416,60.675,13.286
2017-12-03T02:18:49,42.805,6.029,4330,1995,198.367,60.660,13.286
2017-12-03T02:21:49,42.805,6.029,4330,1995,198.490,60.697,13.285
2017-12-03T02:24:49,42.805,6.029,4330,1995,198.422,60.677,13.285
2017-12-03T02:27:49,42.805,6.029,4330,1995,198.461,60.689,13.285
2017-12-03T02:30:49,42.805,6.029,4330,1995,198.465,60.690,13.285
2017-12-03T02:33:49,42.805,6.029,4330,1995,198.445,60.684,13.285
2017-12-03T02:36:49,42.805,6.029,4330,1995,198.372,60.661,13.285
2017-12-03T02:39:49,42.805,6.029,4330,1995,198.408,60.672,13.285
2017-12-03T02:42:49,42.805,6.029,4330,1995,198.488,60.697,13.285
2017-12-03T02:45:49,42.805,6.029,4330,1995,198.402,60.671,13.286
2017-12-03T02:48:49,42.805,6.029,4330,1995,198.426,60.678,13.285
2017-12-03T02:51:49,42.805,6.029,4330,1995,198.420,60.676,13.285
2017-12-03T02:54:49,42.805,6.029,4330,1995,198.411,60.674,13.286
2017-12-03T02:57:49,42.805,6.029,4330,1995,198.403,60.671,13.285
2017-12-03T03:00:49,42.805,6.029,4330,1995,198.424,60.677,13.285
2017-12-03T03:03:49,42.805,6.029,4330,1995,198.431,60.679,13.285
2017-12-03T03:06:49,42.805,6.029,4330,1995,198.416,60.675,13.285
2017-12-03T03:09:49,42.805,6.029,4330,1995,198.409,60.673,13.285
2017-12-03T03:12:49,42.805,6.029,4330,1995,198.388,60.666,13.285
2017-12-03T03:15:49,42.805,6.029,4330,1995,198.366,60.659,13.285
2017-12-03T03:18:49,42.805,6.029,4330,1995,198.341,60.652,13.286
2017-12-03T03:21:49,42.805,6.029,4330,1995,198.398,60.669,13.285
2017-12-03T03:24:49,42.805,6.029,4330,1995,198.350,60.655,13.286
2017-12-03T03:27:49,42.805,6.029,4330,1995,198.283,60.634,13.285
2017-12-03T03:30:49,42.805,6.029,4330,1995,198.319,60.645,13.285
2017-12-03T03:33:49,42.805,6.029,4330,1995,198.321,60.646,13.285
2017-12-03T03:36:49,42.805,6.029,4330,1995,198.323,60.647,13.286
2017-12-03T03:39:49,42.805,6.029,4330,1995,198.331,60.649,13.285
2017-12-03T03:42:49,42.805,6.029,4330,1995,198.356,60.657,13.286
2017-12-03T03:45:49,42.805,6.029,4330,1995,198.386,60.666,13.286
2017-12-03T03:48:49,42.805,6.029,4330,1995,198.399,60.670,13.285
2017-12-03T03:51:49,42.805,6.029,4330,1995,198.397,60.669,13.285
2017-12-03T03:54:49,42.805,6.029,4330,1995,198.388,60.666,13.285
2017-12-03T03:57:49,42.805,6.029,4330,1995,198.364,60.659,13.285
2017-12-03T04:00:49,42.805,6.029,4330,1995,198.389,60.667,13.286
2017-12-03T04:03:49,42.805,6.029,4330,1995,198.394,60.668,13.285
2017-12-03T04:06:49,42.805,6.029,4330,1995,198.389,60.667,13.285
2017-12-03T04:09:49,42.805,6.029,4330,1995,198.313,60.644,13.285
2017-12-03T04:12:49,42.805,6.029,4330,1995,198.338,60.651,13.285
2017-12-03T04:15:49,42.805,6.029,4330,1995,198.288,60.636,13.285
2017-12-03T04:18:49,42.805,6.029,4330,1995,198.321,60.646,13.285
2017-12-03T04:21:49,42.805,6.029,4330,1995,198.343,60.653,13.286
2017-12-03T04:24:49,42.805,6.029,4330,1995,198.262,60.628,13.286
2017-12-03T04:27:49,42.805,6.029,4330,1995,198.331,60.649,13.285
2017-12-03T04:30:49,42.805,6.029,4330,1995,198.330,60.649,13.286
2017-12-03T04:33:49,42.805,6.029,4330,1995,198.435,60.681,13.285
2017-12-03T04:36:49,42.805,6.029,4330,1995,198.429,60.679,13.285
2017-12-03T04:39:49,42.805,6.029,4330,1995,198.433,60.680,13.285
2017-12-03T04:42:49,42.805,6.029,4330,1995,198.470,60.691,13.285
2017-12-03T04:45:49,42.805,6.029,4330,1995,198.424,60.678,13.286
2017-12-03T04:48:49,42.805,6.029,4330,1995,198.397,60.669,13.286
2017-12-03T04:51:49,42.805,6.029,4330,1995,198.332,60.649,13.285
2017-12-03T04:54:49,42.805,6.029,4330,1995,198.355,60.656,13.286
2017-12-03T04:57:49,42.805,6.029,4330,1995,198.357,60.657,13.286
2017-12-03T05:00:49,42.805,6.029,4330,1995,198.355,60.656,13.286
2017-12-03T05:03:49,42.805,6.029,4330,1995,198.356,60.656,13.285
2017-12-03T05:06:49,42.805,6.029,4330,1995,198.328,60.649,13.286
2017-12-03T05:09:49,42.805,6.029,4330,1995,198.248,60.624,13.286
2017-12-03T05:12:49,42.805,6.029,4330,1995,198.288,60.636,13.286
2017-12-03T05:15:49,42.805,6.029,4330,1995,198.238,60.621,13.286
2017-12-03T05:18:49,42.805,6.029,4330,1995,198.173,60.601,13.286
2017-12-03T05:21:49,42.805,6.029,4330,1995,198.214,60.613,13.285
2017-12-03T05:24:49,42.805,6.029,4330,1995,198.205,60.611,13.286
2017-12-03T05:27:49,42.805,6.029,4330,1995,198.154,60.595,13.285
2017-12-03T05:30:49,42.805,6.029,4330,1995,198.203,60.610,13.286
2017-12-03T05:33:49,42.805,6.029,4330,1995,198.153,60.595,13.286
2017-12-03T05:36:49,42.805,6.029,4330,1995,198.125,60.586,13.285
2017-12-03T05:39:49,42.805,6.029,4330,1995,198.117,60.584,13.286
2017-12-03T05:42:49,42.805,6.029,4330,1995,198.105,60.580,13.286
2017-12-03T05:45:49,42.805,6.029,4330,1995,198.137,60.590,13.286
2017-12-03T05:48:49,42.805,6.029,4330,1995,198.138,60.590,13.286
2017-12-03T05:51:49,42.805,6.029,4330,1995,198.168,60.599,13.285
2017-12-03T05:54:49,42.805,6.029,4330,1995,198.176,60.601,13.285
2017-12-03T05:57:49,42.805,6.029,4330,1995,198.250,60.624,13.285
2017-12-03T06:00:49,42.805,6.029,4330,1995,198.289,60.636,13.285
2017-12-03T06:03:49,42.805,6.029,4330,1995,198.298,60.639,13.286
2017-12-03T06:06:49,42.805,6.029,4330,1995,198.346,60.653,13.285
2017-12-03T06:09:49,42.805,6.029,4330,1995,198.395,60.669,13.286
2017-12-03T06:12:49,42.805,6.029,4330,1995,198.368,60.660,13.286
2017-12-03T06:15:49,42.805,6.029,4330,1995,198.429,60.679,13.285
2017-12-03T06:18:49,42.805,6.029,4330,1995,198.460,60.688,13.285
2017-12-03T06:21:49,42.805,6.029,4330,1995,198.435,60.681,13.285
2017-12-03T06:24:49,42.805,6.029,4330,1995,198.498,60.700,13.285
2017-12-03T06:27:49,42.805,6.029,4330,1995,198.487,60.697,13.286
2017-12-03T06:30:49,42.805,6.029,4330,1995,198.387,60.667,13.286
2017-12-03T06:33:49,42.805,6.029,4330,1995,198.465,60.691,13.286
2017-12-03T06:36:49,42.805,6.029,4330,1995,198.466,60.690,13.286
2017-12-03T06:39:49,42.805,6.029,4330,1995,198.446,60.684,13.285
2017-12-03T06:42:49,42.805,6.029,4330,1995,198.377,60.663,13.286
2017-12-03T06:45:49,42.805,6.029,4330,1995,198.353,60.656,13.285
2017-12-03T06:48:49,42.805,6.029,4330,1995,198.397,60.669,13.286
2017-12-03T06:51:49,42.805,6.029,4330,1995,198.418,60.676,13.286
2017-12-03T06:54:49,42.805,6.029,4330,1995,198.439,60.682,13.286
2017-12-03T06:57:49,42.805,6.029,4330,1995,198.408,60.672,13.285
2017-12-03T07:00:49,42.805,6.029,4330,1995,198.429,60.679,13.285
2017-12-03T07:03:49,42.805,6.029,4330,1995,198.424,60.678,13.286
2017-12-03T07:06:49,42.805,6.029,4330,1995,198.442,60.683,13.285
2017-12-03T07:09:49,42.805,6.029,4330,1995,198.449,60.685,13.285
2017-12-03T07:12:49,42.805,6.029,4330,1995,198.425,60.678,13.285
2017-12-03T07:15:49,42.805,6.029,4330,1995,198.451,60.686,13.286
2017-12-03T07:18:49,42.805,6.029,4330,1995,198.448,60.684,13.285
2017-12-03T07:21:49,42.805,6.029,4330,1995,198.453,60.686,13.285
2017-12-03T07:24:49,42.805,6.029,4330,1995,198.467,60.691,13.285
2017-12-03T07:27:49,42.805,6.029,4330,1995,198.467,60.691,13.286
2017-12-03T07:30:49,42.805,6.029,4330,1995,198.441,60.683,13.286
2017-12-03T07:33:49,42.805,6.029,4330,1995,198.430,60.679,13.286
2017-12-03T07:36:49,42.805,6.029,4330,1995,198.416,60.675,13.286
2017-12-03T07:39:49,42.805,6.029,4330,1995,198.450,60.686,13.286
2017-12-03T07:42:49,42.805,6.029,4330,1995,198.449,60.685,13.286
2017-12-03T07:45:49,42.805,6.029,4330,1995,198.399,60.670,13.286
2017-12-03T07:48:49,42.805,6.029,4330,1995,198.449,60.685,13.285
2017-12-03T07:51:49,42.805,6.029,4330,1995,198.455,60.687,13.286
2017-12-03T07:54:49,42.805,6.029,4330,1995,198.464,60.690,13.286
2017-12-03T07:57:49,42.805,6.029,4330,1995,198.451,60.686,13.286
2017-12-03T08:00:49,42.805,6.029,4330,1995,198.429,60.679,13.286
2017-12-03T08:03:49,42.805,6.029,4330,1995,198.398,60.670,13.286
2017-12-03T08:06:49,42.805,6.029,4330,1995,198.455,60.687,13.286
2017-12-03T08:09:49,42.805,6.029,4330,1995,198.478,60.694,13.286
2017-12-03T08:12:49,42.805,6.029,4330,1995,198.437,60.682,13.286
2017-12-03T08:15:49,42.805,6.029,4330,1995,198.457,60.688,13.286
2017-12-03T08:18:49,42.805,6.029,4330,1995,198.434,60.680,13.285
2017-12-03T08:21:49,42.805,6.029,4330,1995,198.418,60.676,13.286
2017-12-03T08:24:49,42.805,6.029,4330,1995,198.512,60.704,13.286
2017-12-03T08:27:49,42.805,6.029,4330,1995,198.415,60.675,13.286
2017-12-03T08:30:49,42.805,6.029,4330,1995,198.500,60.700,13.285
2017-12-03T08:33:49,42.805,6.029,4330,1995,198.466,60.690,13.285
2017-12-03T08:36:49,42.805,6.029,4330,1995,198.447,60.685,13.286
2017-12-03T08:39:49,42.805,6.029,4330,1995,198.471,60.691,13.285
2017-12-03T08:42:49,42.805,6.029,4330,1995,198.441,60.683,13.286
2017-12-03T08:45:49,42.805,6.029,4330,1995,198.458,60.688,13.286
2017-12-03T08:48:49,42.805,6.029,4330,1995,198.444,60.684,13.286
2017-12-03T08:51:49,42.805,6.029,4330,1995,198.428,60.679,13.286
2017-12-03T08:54:49,42.805,6.029,4330,1995,198.457,60.687,13.286
2017-12-03T08:57:49,42.805,6.029,4330,1995,198.437,60.682,13.286
2017-12-03T09:00:49,42.805,6.029,4330,1995,198.450,60.685,13.285
2017-12-03T09:03:49,42.805,6.029,4330,1995,198.456,60.688,13.286
2017-12-03T09:06:49,42.805,6.029,4330,1995,198.468,60.691,13.286
2017-12-03T09:09:49,42.805,6.029,4330,1995,198.433,60.680,13.285
2017-12-03T09:12:49,42.805,6.029,4330,1995,198.443,60.683,13.286
2017-12-03T09:15:49,42.805,6.029,4330,1995,198.433,60.680,13.285
2017-12-03T09:18:49,42.805,6.029,4330,1995,198.435,60.681,13.286
2017-12-03T09:21:48,42.805,6.029,4330,1995,198.439,60.682,13.286
2017-12-03T09:24:48,42.805,6.029,4330,1995,198.435,60.681,13.286
2017-12-03T09:27:48,42.805,6.029,4330,1995,198.387,60.667,13.286
2017-12-03T09:30:48,42.805,6.029,4330,1995,198.473,60.693,13.286
2017-12-03T09:33:48,42.805,6.029,4330,1995,198.468,60.691,13.285
2017-12-03T09:36:48,42.805,6.029,4330,1995,198.453,60.686,13.285
2017-12-03T09:39:48,42.805,6.029,4330,1995,198.378,60.664,13.286
2017-12-03T09:42:48,42.805,6.029,4330,1995,198.458,60.688,13.285
2017-12-03T09:45:48,42.805,6.029,4330,1995,198.439,60.682,13.286
2017-12-03T09:48:48,42.805,6.029,4330,1995,198.402,60.671,13.286
2017-12-03T09:51:48,42.805,6.029,4330,1995,198.451,60.686,13.285
2017-12-03T09:54:48,42.805,6.029,4330,1995,198.437,60.682,13.286
2017-12-03T09:57:48,42.805,6.029,4330,1995,198.454,60.687,13.286
2017-12-03T10:00:48,42.805,6.029,4330,1995,198.452,60.686,13.285
2017-12-03T10:03:48,42.805,6.029,4330,1995,198.464,60.690,13.286
2017-12-03T10:06:48,42.805,6.029,4330,1995,198.432,60.680,13.286
2017-12-03T10:09:48,42.805,6.029,4330,1995,198.431,60.680,13.286
2017-12-03T10:12:48,42.805,6.029,4330,1995,198.462,60.690,13.286
2017-12-03T10:15:48,42.805,6.029,4330,1995,198.439,60.682,13.286
2017-12-03T10:18:48,42.805,6.029,4330,1995,198.511,60.704,13.285
2017-12-03T10:21:48,42.805,6.029,4330,1995,198.473,60.693,13.286
2017-12-03T10:24:48,42.805,6.029,4330,1995,198.420,60.676,13.286
2017-12-03T10:27:48,42.805,6.029,4330,1995,198.461,60.689,13.285
2017-12-03T10:30:48,42.805,6.029,4330,1995,198.465,60.690,13.286
2017-12-03T10:33:48,42.805,6.029,4330,1995,198.472,60.692,13.286
2017-12-03T10:36:48,42.805,6.029,4330,1995,198.480,60.695,13.286
2017-12-03T10:39:48,42.805,6.029,4330,1995,198.456,60.687,13.286
2017-12-03T10:42:48,42.805,6.029,4330,1995,198.413,60.674,13.286
2017-12-03T10:45:48,42.805,6.029,4330,1995,198.433,60.680,13.285
2017-12-03T10:48:48,42.805,6.029,4330,1995,198.483,60.695,13.285
2017-12-03T10:51:48,42.805,6.029,4330,1995,198.462,60.689,13.285
2017-12-03T10:54:48,42.805,6.029,4330,1995,198.410,60.673,13.285
2017-12-03T10:57:48,42.805,6.029,4330,1995,198.403,60.671,13.286
2017-12-03T11:00:48,42.805,6.029,4330,1995,198.408,60.673,13.286
2017-12-03T11:03:48,42.805,6.029,4330,1995,198.487,60.697,13.285
2017-12-03T11:06:48,42.805,6.029,4330,1995,198.397,60.670,13.286
2017-12-03T11:09:48,42.805,6.029,4330,1995,198.415,60.675,13.286
2017-12-03T11:12:48,42.805,6.029,4330,1995,198.380,60.664,13.285
2017-12-03T11:15:48,42.805,6.029,4330,1995,198.405,60.672,13.285
2017-12-03T11:18:48,42.805,6.029,4330,1995,198.454,60.686,13.285
2017-12-03T11:21:48,42.805,6.029,4330,1995,198.434,60.681,13.285
2017-12-03T11:24:48,42.805,6.029,4330,1995,198.391,60.667,13.286
2017-12-03T11:27:48,42.805,6.029,4330,1995,198.382,60.665,13.286
2017-12-03T11:30:48,42.805,6.029,4330,1995,198.375,60.663,13.286
2017-12-03T11:33:48,42.805,6.029,4330,1995,198.434,60.680,13.285
2017-12-03T11:36:48,42.805,6.029,4330,1995,198.413,60.674,13.286
2017-12-03T11:39:48,42.805,6.029,4330,1995,198.397,60.669,13.285
2017-12-03T11:42:48,42.805,6.029,4330,1995,198.410,60.673,13.285
2017-12-03T11:45:48,42.805,6.029,4330,1995,198.349,60.655,13.286
2017-12-03T11:48:48,42.805,6.029,4330,1995,198.328,60.648,13.286
2017-12-03T11:51:48,42.805,6.029,4330,1995,198.330,60.649,13.285
2017-12-03T11:54:48,42.805,6.029,4330,1995,198.340,60.652,13.285
2017-12-03T11:57:48,42.805,6.029,4330,1995,198.351,60.655,13.286
2017-12-03T12:00:48,42.805,6.029,4330,1995,198.332,60.650,13.286
2017-12-03T12:03:48,42.805,6.029,4330,1995,198.365,60.659,13.286
2017-12-03T12:06:48,42.805,6.029,4330,1995,198.255,60.626,13.286
2017-12-03T12:09:48,42.805,6.029,4330,1995,198.318,60.645,13.286
2017-12-03T12:12:48,42.805,6.029,4330,1995,198.298,60.639,13.285
2017-12-03T12:15:48,42.805,6.029,4330,1995,198.283,60.635,13.286
2017-12-03T12:18:48,42.805,6.029,4330,1995,198.265,60.629,13.286
2017-12-03T12:21:48,42.805,6.029,4330,1995,198.293,60.637,13.286
2017-12-03T12:24:48,42.805,6.029,4330,1995,198.210,60.612,13.286
2017-12-03T12:27:48,42.805,6.029,4330,1995,198.227,60.617,13.286
2017-12-03T12:30:48,42.805,6.029,4330,1995,198.227,60.618,13.286
2017-12-03T12:33:48,42.805,6.029,4330,1995,198.202,60.610,13.286
2017-12-03T12:36:48,42.805,6.029,4330,1995,198.176,60.602,13.286
2017-12-03T12:39:48,42.805,6.029,4330,1995,198.191,60.606,13.285
2017-12-03T12:42:48,42.805,6.029,4330,1995,198.181,60.603,13.286
2017-12-03T12:45:48,42.805,6.029,4330,1995,198.191,60.606,13.285
2017-12-03T12:48:48,42.805,6.029,4330,1995,198.200,60.609,13.286
2017-12-03T12:51:48,42.805,6.029,4330,1995,198.151,60.594,13.286
2017-12-03T12:54:48,42.805,6.029,4330,1995,198.131,60.588,13.285
2017-12-03T12:57:48,42.805,6.029,4330,1995,198.158,60.596,13.286
2017-12-03T13:00:48,42.805,6.029,4330,1995,198.162,60.597,13.286
2017-12-03T13:03:48,42.805,6.029,4330,1995,198.070,60.570,13.286
2017-12-03T13:06:48,42.805,6.029,4330,1995,198.103,60.580,13.286
2017-12-03T13:09:48,42.805,6.029,4330,1995,198.119,60.584,13.286
2017-12-03T13:12:48,42.805,6.029,4330,1995,198.075,60.571,13.286
2017-12-03T13:15:48,42.805,6.029,4330,1995,198.179,60.603,13.286
2017-12-03T13:18:48,42.805,6.029,4330,1995,198.202,60.610,13.286
2017-12-03T13:21:48,42.805,6.029,4330,1995,198.212,60.613,13.286
2017-12-03T13:24:48,42.805,6.029,4330,1995,198.213,60.613,13.286
2017-12-03T13:27:48,42.805,6.029,4330,1995,198.243,60.623,13.286
2017-12-03T13:30:48,42.805,6.029,4330,1995,198.230,60.618,13.286
2017-12-03T13:33:48,42.805,6.029,4330,1995,198.303,60.641,13.286
2017-12-03T13:36:48,42.805,6.029,4330,1995,198.210,60.612,13.286
2017-12-03T13:39:48,42.805,6.029,4330,1995,198.244,60.623,13.286
2017-12-03T13:42:48,42.805,6.029,4330,1995,198.323,60.647,13.285
2017-12-03T13:45:48,42.805,6.029,4330,1995,198.308,60.642,13.286
2017-12-03T13:48:48,42.805,6.029,4330,1995,198.298,60.639,13.286
2017-12-03T13:51:48,42.805,6.029,4330,1995,198.313,60.644,13.286
2017-12-03T13:54:48,42.805,6.029,4330,1995,198.327,60.648,13.286
2017-12-03T13:57:48,42.805,6.029,4330,1995,198.335,60.651,13.286
2017-12-03T14:00:48,42.805,6.029,4330,1995,198.267,60.629,13.286
2017-12-03T14:03:48,42.805,6.029,4330,1995,198.332,60.649,13.286
2017-12-03T14:06:48,42.805,6.029,4330,1995,198.329,60.648,13.286
2017-12-03T14:09:48,42.805,6.029,4330,1995,198.317,60.645,13.286
2017-12-03T14:12:48,42.805,6.029,4330,1995,198.309,60.643,13.286
2017-12-03T14:15:48,42.805,6.029,4330,1995,198.347,60.654,13.285
2017-12-03T14:18:48,42.805,6.029,4330,1995,198.373,60.662,13.285
2017-12-03T14:21:48,42.805,6.029,4330,1995,198.356,60.657,13.286
2017-12-03T14:24:48,42.805,6.029,4330,1995,198.271,60.631,13.286
2017-12-03T14:27:48,42.805,6.029,4330,1995,198.339,60.652,13.286
2017-12-03T14:30:48,42.805,6.029,4330,1995,198.335,60.650,13.285
2017-12-03T14:33:48,42.805,6.029,4330,1995,198.354,60.656,13.286
2017-12-03T14:36:48,42.805,6.029,4330,1995,198.390,60.667,13.286
2017-12-03T14:39:48,42.805,6.029,4330,1995,198.349,60.655,13.286
2017-12-03T14:42:48,42.805,6.029,4330,1995,198.344,60.653,13.285
2017-12-03T14:45:48,42.805,6.029,4330,1995,198.299,60.639,13.286
2017-12-03T14:48:48,42.805,6.029,4330,1995,198.354,60.656,13.286
2017-12-03T14:51:48,42.805,6.029,4330,1995,198.280,60.633,13.285
2017-12-03T14:54:48,42.805,6.029,4330,1995,198.326,60.648,13.286
2017-12-03T14:57:48,42.805,6.029,4330,1995,198.373,60.662,13.286
2017-12-03T15:00:48,42.805,6.029,4330,1995,198.280,60.633,13.286
2017-12-03T15:03:48,42.805,6.029,4330,1995,198.313,60.643,13.286
2017-12-03T15:06:48,42.805,6.029,4330,1995,198.343,60.653,13.286
2017-12-03T15:09:48,42.805,6.029,4330,1995,198.352,60.655,13.286
2017-12-03T15:12:48,42.805,6.029,4330,1995,198.301,60.640,13.286
2017-12-03T15:15:48,42.805,6.029,4330,1995,198.314,60.644,13.286
2017-12-03T15:18:48,42.805,6.029,4330,1995,198.297,60.639,13.285
2017-12-03T15:21:48,42.805,6.029,4330,1995,198.327,60.648,13.285
2017-12-03T15:24:48,42.805,6.029,4330,1995,198.292,60.637,13.285
2017-12-03T15:27:48,42.805,6.029,4330,1995,198.392,60.668,13.286
2017-12-03T15:30:48,42.805,6.029,4330,1995,198.320,60.646,13.286
2017-12-03T15:33:48,42.805,6.029,4330,1995,198.310,60.643,13.286
2017-12-03T15:36:48,42.805,6.029,4330,1995,198.328,60.648,13.286
2017-12-03T15:39:48,42.805,6.029,4330,1995,198.318,60.645,13.286
2017-12-03T15:42:48,42.805,6.029,4330,1995,198.356,60.657,13.286
2017-12-03T15:45:48,42.805,6.029,4330,1995,198.323,60.647,13.286
2017-12-03T15:48:48,42.805,6.029,4330,1995,198.261,60.628,13.286
2017-12-03T15:51:48,42.805,6.029,4330,1995,198.296,60.638,13.286
2017-12-03T15:54:48,42.805,6.029,4330,1995,198.339,60.652,13.286
2017-12-03T15:57:48,42.805,6.029,4330,1995,198.286,60.635,13.285
2017-12-03T16:00:48,42.805,6.029,4330,1995,198.285,60.635,13.286
2017-12-03T16:03:48,42.805,6.029,4330,1995,198.287,60.636,13.286
2017-12-03T16:06:48,42.805,6.029,4330,1995,198.315,60.644,13.286
2017-12-03T16:09:48,42.805,6.029,4330,1995,198.313,60.643,13.285
2017-12-03T16:12:48,42.805,6.029,4330,1995,198.293,60.638,13.286
2017-12-03T16:15:48,42.805,6.029,4330,1995,198.279,60.633,13.285
2017-12-03T16:18:48,42.805,6.029,4330,1995,198.253,60.625,13.286
2017-12-03T16:21:48,42.805,6.029,4330,1995,198.279,60.633,13.286
2017-12-03T16:24:48,42.805,6.029,4330,1995,198.243,60.622,13.286
2017-12-03T16:27:48,42.805,6.029,4330,1995,198.288,60.636,13.286
2017-12-03T16:30:48,42.805,6.029,4330,1995,198.215,60.613,13.285
2017-12-03T16:33:48,42.805,6.029,4330,1995,198.237,60.620,13.286
2017-12-03T16:36:48,42.805,6.029,4330,1995,198.235,60.620,13.286
2017-12-03T16:39:48,42.805,6.029,4330,1995,198.214,60.613,13.285
2017-12-03T16:42:48,42.805,6.029,4330,1995,198.215,60.613,13.285
2017-12-03T16:45:48,42.805,6.029,4330,1995,198.121,60.585,13.286
2017-12-03T16:48:48,42.805,6.029,4330,1995,198.126,60.586,13.285
2017-12-03T16:51:48,42.805,6.029,4330,1995,198.101,60.579,13.286
2017-12-03T16:54:48,42.805,6.029,4330,1995,198.156,60.596,13.286
2017-12-03T16:57:48,42.805,6.029,4330,1995,198.132,60.588,13.286
2017-12-03T17:00:48,42.805,6.029,4330,1995,198.117,60.584,13.286
2017-12-03T17:03:48,42.805,6.029,4330,1995,198.135,60.589,13.286
2017-12-03T17:06:48,42.805,6.029,4330,1995,198.164,60.598,13.285
2017-12-03T17:09:48,42.805,6.029,4330,1995,198.148,60.593,13.285
2017-12-03T17:12:48,42.805,6.029,4330,1995,198.193,60.607,13.286
2017-12-03T17:15:48,42.805,6.029,4330,1995,198.176,60.602,13.285
2017-12-03T17:18:48,42.805,6.029,4330,1995,198.207,60.611,13.286
2017-12-03T17:21:48,42.805,6.029,4330,1995,198.251,60.625,13.285
2017-12-03T17:24:48,42.805,6.029,4330,1995,198.185,60.604,13.286
2017-12-03T17:27:48,42.805,6.029,4330,1995,198.119,60.584,13.286
2017-12-03T17:30:48,42.805,6.029,4330,1995,198.191,60.607,13.286
2017-12-03T17:33:48,42.805,6.029,4330,1995,198.230,60.618,13.285
2017-12-03T17:36:48,42.805,6.029,4330,1995,198.147,60.593,13.286
2017-12-03T17:39:48,42.805,6.029,4330,1995,198.175,60.601,13.286
2017-12-03T17:42:48,42.805,6.029,4330,1995,198.181,60.603,13.286
2017-12-03T17:45:48,42.805,6.029,4330,1995,198.184,60.604,13.286
2017-12-03T17:48:48,42.805,6.029,4330,1995,198.178,60.602,13.286
2017-12-03T17:51:48,42.805,6.029,4330,1995,198.203,60.610,13.286
2017-12-03T17:54:48,42.805,6.029,4330,1995,198.185,60.604,13.286
2017-12-03T17:57:48,42.805,6.029,4330,1995,198.214,60.613,13.286
2017-12-03T18:00:48,42.805,6.029,4330,1995,198.208,60.611,13.285
2017-12-03T18:03:48,42.805,6.029,4330,1995,198.189,60.606,13.286
2017-12-03T18:06:48,42.805,6.029,4330,1995,198.129,60.587,13.285